FW8624 Weather Reports


time (UTC)temp
C
wind
direction
speed
KPH
gust
KPH
rain 1hr
cm
rain 24hr
cm
rain mn
cm
humidity
%
barometer
mb
20210920041525 23 117 1.6 11.3 0.00 0.00 0.00 91 1021.1
20210920040015 23 93 3.2 9.7 0.00 0.00 0.00 91 1021.2
20210920034510 23 115 0.0 4.8 0.00 0.00 0.00 90 1021.1
20210920033009 23 32 1.6 8.0 0.00 0.00 0.00 90 1020.9
20210920031509 23 89 1.6 4.8 0.00 0.00 0.00 90 1020.8
20210920030026 23 0 0.0 4.8 0.00 0.00 0.00 90 1020.8
20210920024510 23 47 0.0 3.2 0.00 0.00 0.00 91 1020.9
20210920023009 23 344 1.6 6.4 0.00 0.00 0.00 90 1020.8
20210920021510 23 5 0.0 3.2 0.00 0.00 0.00 88 1020.8
20210920020021 24 0 0.0 3.2 0.00 0.00 0.00 87 1020.6
20210920014513 24 0 0.0 3.2 0.00 0.00 0.00 86 1020.5
20210920013017 24 0 0.0 1.6 0.00 0.00 0.00 85 1020.3
20210920011514 24 0 0.0 1.6 0.00 0.00 0.00 85 1020.2
20210920010016 25 0 0.0 3.2 0.00 0.00 0.00 83 1020.1
20210920004510 25 126 0.0 4.8 0.00 0.00 0.00 82 1020.0
20210920003021 25 113 1.6 4.8 0.00 0.00 0.00 81 1019.9
20210920001511 26 120 3.2 9.7 0.00 0.00 0.00 81 1019.8
20210920000009 26 120 3.2 12.9 0.00 0.00 0.00 80 1019.6
20210919234513 26 135 3.2 11.3 0.00 0.00 0.00 79 1019.6
20210919233011 26 133 6.4 14.5 0.00 0.00 0.00 78 1019.4
20210919231517 26 138 6.4 12.9 0.00 0.00 0.00 77 1019.3
20210919230019 26 125 9.7 16.1 0.00 0.00 0.00 77 1019.4
20210919224516 26 127 8.0 17.7 0.00 0.00 0.00 76 1019.4
20210919223017 26 153 9.7 20.9 0.00 0.00 0.00 76 1019.4
20210919221549 26 147 8.0 14.5 0.00 0.00 0.00 76 1019.3
20210919220012 27 165 9.7 17.7 0.00 0.00 0.00 74 1019.2
20210919214534 27 119 8.0 17.7 0.00 0.00 0.00 73 1019.2
20210919213010 27 152 11.3 19.3 0.00 0.00 0.00 74 1019.2
20210919211524 27 106 8.0 22.5 0.00 0.00 0.00 73 1019.1
20210919210021 27 139 11.3 22.5 0.00 0.00 0.00 69 1018.9
20210919204514 28 149 11.3 17.7 0.00 0.00 0.00 66 1018.9
20210919203024 28 124 12.9 20.9 0.00 0.00 0.00 64 1019.0
20210919201516 28 142 12.9 19.3 0.00 0.00 0.00 62 1019.1
20210919200017 28 139 11.3 19.3 0.00 0.00 0.00 61 1019.2
20210919194524 28 117 11.3 20.9 0.00 0.00 0.00 60 1019.3
20210919193010 28 76 8.0 16.1 0.00 0.00 0.00 64 1019.5
20210919191537 28 136 9.7 17.7 0.00 0.00 0.00 66 1019.6
20210919190012 28 135 1.6 19.3 0.00 0.00 0.00 65 1019.8
20210919184512 28 123 8.0 14.5 0.00 0.00 0.00 66 1019.9
20210919183034 28 95 3.2 14.5 0.00 0.00 0.00 68 1019.8
20210919181617 28 33 1.6 12.9 0.00 0.00 0.00 67 1020.0
20210919180012 28 0 4.8 12.9 0.00 0.00 0.00 65 1020.1
20210919174512 28 122 4.8 14.5 0.00 0.00 0.00 67 1020.3
20210919173014 28 130 4.8 19.3 0.00 0.00 0.00 68 1020.5
20210919171514 28 100 4.8 12.9 0.00 0.00 0.00 71 1020.6
20210919170040 28 81 6.4 20.9 0.00 0.00 0.00 72 1020.7
20210919164541 27 108 4.8 20.9 0.00 0.00 0.00 72 1020.9
20210919163024 27 107 9.7 16.1 0.00 0.00 0.00 72 1020.8
20210919161514 28 84 4.8 16.1 0.00 0.00 0.00 71 1021.0
20210919160027 27 80 3.2 14.5 0.00 0.00 0.00 74 1020.9
20210919154527 27 98 3.2 16.1 0.00 0.00 0.00 76 1021.0
20210919153039 27 66 4.8 12.9 0.00 0.00 0.00 74 1021.1
20210919151533 26 89 3.2 9.7 0.00 0.00 0.00 76 1020.9
20210919150014 26 113 1.6 9.7 0.00 0.00 0.00 78 1021.0
20210919144603 26 355 4.8 12.9 0.00 0.00 0.00 78 1021.1
20210919143021 26 100 1.6 12.9 0.00 0.00 0.00 78 1021.1
20210919141511 26 87 4.8 12.9 0.00 0.00 0.00 79 1021.0
20210919140013 26 326 3.2 8.0 0.00 0.00 0.00 80 1020.7
20210919134523 26 5 4.8 8.0 0.00 0.00 0.00 80 1020.5
20210919133015 25 69 3.2 8.0 0.00 0.00 0.00 80 1020.4
20210919131511 25 97 0.0 6.4 0.00 0.00 0.00 81 1020.4
20210919130013 25 0 1.6 9.7 0.00 0.00 0.00 83 1020.2
20210919124518 24 5 3.2 6.4 0.00 0.00 0.00 86 1020.2
20210919123011 23 44 0.0 4.8 0.00 0.00 0.00 87 1019.9
20210919121510 23 344 0.0 3.2 0.00 0.00 0.00 88 1019.9
20210919120028 22 0 0.0 3.2 0.00 0.00 0.00 90 1019.8
20210919114516 21 355 1.6 4.8 0.00 0.00 0.00 92 1019.8
20210919113009 21 0 0.0 1.6 0.00 0.00 0.00 94 1019.8
20210919111510 20 0 0.0 1.6 0.00 0.00 0.00 94 1019.7
20210919110017 20 0 0.0 1.6 0.00 0.00 0.00 93 1019.5
20210919104528 20 0 0.0 1.6 0.00 0.00 0.00 93 1019.5
20210919103014 20 0 0.0 1.6 0.00 0.00 0.00 93 1019.3
20210919101539 20 9 0.0 3.2 0.00 0.00 0.00 93 1019.2
20210919100015 20 0 0.0 1.6 0.00 0.00 0.00 93 1019.3
20210919094552 20 9 1.6 4.8 0.00 0.00 0.00 94 1019.3
20210919093010 20 0 0.0 3.2 0.00 0.00 0.00 93 1019.3
20210919091510 20 9 1.6 4.8 0.00 0.00 0.00 93 1019.1
20210919090009 20 360 0.0 3.2 0.00 0.00 0.00 93 1018.8
20210919084536 21 348 1.6 4.8 0.00 0.00 0.00 93 1018.8
20210919083012 21 5 1.6 4.8 0.00 0.00 0.00 93 1018.7
20210919081513 21 348 3.2 4.8 0.00 0.00 0.00 93 1018.8
20210919080011 21 5 0.0 1.6 0.00 0.00 0.00 93 1018.7
20210919074518 21 5 1.6 3.2 0.00 0.00 0.00 93 1018.5
20210919073013 21 0 0.0 3.2 0.00 0.00 0.00 93 1018.7
20210919071521 21 5 0.0 3.2 0.00 0.00 0.00 93 1019.0
20210919070010 21 5 1.6 4.8 0.00 0.00 0.00 92 1019.1
20210919064644 21 5 1.6 4.8 0.00 0.00 0.00 93 1019.2
20210919063108 21 350 0.0 3.2 0.00 0.00 0.00 92 1019.3
20210919061511 21 0 0.0 3.2 0.00 0.00 0.00 92 1019.3
20210919060011 21 350 0.0 4.8 0.00 0.00 0.00 92 1019.4
20210919054518 22 355 1.6 4.8 0.00 0.00 0.00 91 1019.5
20210919053016 22 360 1.6 3.2 0.00 0.00 0.00 91 1019.4
20210919051526 22 0 0.0 1.6 0.00 0.00 0.00 90 1019.4
20210919050013 22 0 0.0 1.6 0.00 0.00 0.00 88 1019.4
20210919044531 22 360 0.0 3.2 0.00 0.00 0.00 87 1019.6
20210919043017 22 0 0.0 4.8 0.00 0.00 0.00 87 1019.7